Wind_Speed
23 22 20 18 16 15 13 12 11 9 7 6 6 6 6 6 7 8 9 9 10 10 10 10 10 10 9 8 8 8 7 7 8 9 10 12 13 14 15 16 17 18 19 19
22 20 19 17 15 14 13 11 10 9 8 7 6 5 5 6 6 7 8 9 10 10 10 10 10 9 9 9 9 8 8 8 8 9 10 11 12 14 15 15 16 17 19 19
20 19 17 17 15 14 12 11 10 9 8 7 5 4 4 5 6 7 8 9 9 9 9 10 10 10 10 9 9 9 9 8 8 9 10 11 12 13 14 15 16 17 19 19
21 19 17 15 14 13 11 10 10 9 7 6 4 4 3 4 6 7 8 9 9 9 9 10 10 10 9 9 9 9 9 9 9 9 10 10 11 12 13 14 16 17 18 19
20 18 16 15 14 12 11 10 10 8 7 5 5 4 3 4 6 7 8 9 9 9 9 9 9 10 9 9 10 10 10 10 9 9 10 10 11 12 13 14 15 17 18 18
18 17 16 14 13 12 11 10 9 7 6 5 4 3 4 5 7 7 8 8 9 9 10 9 9 9 10 10 10 10 11 10 10 10 10 11 11 12 13 13 15 16 17 18
18 16 15 13 12 11 10 9 7 6 5 4 3 3 4 6 6 7 7 8 9 10 10 10 9 9 10 10 10 11 11 11 11 11 11 11 11 12 13 13 14 15 16 17
15 15 13 12 11 10 9 8 6 5 3 3 3 4 5 6 7 8 8 9 9 10 10 11 11 10 11 11 11 11 12 12 12 12 12 12 12 12 13 13 14 15 15 16
14 13 12 11 10 9 8 7 5 4 3 3 4 4 6 7 8 9 9 9 10 10 11 11 11 11 12 12 12 12 13 13 13 13 13 13 13 13 13 14 14 14 15 15
11 10 9 8 7 6 5 4 3 3 4 4 4 5 7 8 9 9 9 10 10 11 11 11 12 12 12 13 13 14 14 14 14 14 14 14 14 14 14 14 14 14 14 15
10 8 7 6 5 4 3 3 2 3 3 4 5 6 8 8 9 9 10 11 11 12 12 13 13 13 13 13 14 14 15 15 16 16 15 15 15 15 15 15 15 15 15 14
7 7 5 4 3 2 2 1 2 3 3 4 5 7 8 9 9 10 10 11 11 12 13 13 14 14 15 15 15 15 15 16 17 17 17 17 17 17 17 16 16 16 16 15
5 5 4 2 2 1 1 2 3 4 5 5 6 7 10 10 11 11 12 12 12 13 14 14 15 15 16 16 16 16 16 17 17 18 18 19 19 18 18 18 17 17 17 16
4 4 2 1 1 2 3 4 5 6 6 7 8 9 10 12 12 13 13 13 14 14 15 15 16 16 17 17 18 18 18 18 19 19 19 20 20 20 20 20 19 19 18 18
3 2 2 2 2 3 5 6 6 7 7 8 9 10 11 12 13 14 14 15 15 16 16 16 17 17 18 19 20 20 20 20 21 21 21 22 22 22 22 22 21 21 20 20
2 2 2 3 4 4 5 6 7 8 8 9 10 11 13 13 14 15 16 17 17 18 18 18 18 19 20 20 21 22 22 23 23 23 23 23 23 23 24 24 23 23 23 22
3 4 4 5 6 7 7 8 9 9 10 11 12 13 15 15 16 17 18 19 20 21 21 21 21 21 22 22 23 23 24 25 25 26 26 26 26 26 25 25 25 25 25 24
6 7 7 7 8 9 9 10 11 12 12 13 14 15 16 18 19 20 20 21 22 23 25 25 26 26 27 27 26 27 27 27 27 28 29 29 29 28 28 28 27 27 27 27
9 9 10 10 11 11 12 12 13 14 15 16 17 18 19 20 22 23 24 25 26 27 28 29 30 30 31 31 31 31 31 31 31 31 31 32 32 32 32 31 31 30 30 29
12 12 13 13 14 15 15 16 16 18 18 19 21 22 23 24 25 26 28 29 30 31 32 33 34 34 35 35 35 35 35 35 35 35 35 35 35 35 35 35 34 34 33 32
16 16 17 17 18 19 19 19 21 22 22 23 25 26 27 28 29 30 31 32 34 35 36 37 37 38 39 39 40 40 40 40 39 39 39 39 39 38 38 37 37 37 36 35
19 20 20 21 22 22 23 24 24 26 27 27 28 30 31 32 33 35 36 36 38 39 39 40 41 42 42 43 44 44 44 44 44 44 43 43 42 41 41 40 40 40 39 38
22 23 24 25 25 26 26 27 28 29 30 31 32 33 34 36 37 38 39 40 42 43 44 44 45 45 46 47 48 48 48 49 48 48 47 46 45 45 44 43 43 42 42 41
25 26 27 27 28 29 29 30 31 32 33 34 35 36 38 39 40 41 43 44 46 47 48 48 49 50 51 51 52 52 51 51 51 51 50 49 48 48 47 46 46 46 45 44
28 29 30 30 31 32 32 33 34 36 37 38 40 41 42 43 45 46 48 49 51 52 52 53 54 55 55 56 56 56 56 55 55 54 53 52 52 51 51 50 49 49 48 47
31 32 33 33 34 35 35 37 38 40 41 42 43 45 47 48 50 51 53 54 55 56 57 57 58 58 59 60 60 60 60 59 58 57 56 55 54 53 53 53 52 51 50 50
Wind_Direction
178 179 182 184 186 190 193 195 195 198 199 202 219 229 239 248 258 265 270 274 278 276 276 276 275 275 272 270 270 274 282 294 304 315 323 332 338 341 343 344 345 344 345 345
170 171 174 178 183 182 183 184 187 191 199 204 215 224 236 247 260 269 274 276 278 276 275 274 275 274 273 273 274 277 282 294 303 312 320 329 336 339 342 344 345 345 345 346
162 165 166 167 168 172 179 184 185 189 190 196 208 223 239 257 272 281 284 285 285 280 278 276 274 275 276 275 274 277 283 293 301 311 318 325 332 336 340 343 345 345 346 347
158 162 163 164 166 169 175 179 183 186 193 196 209 218 240 266 283 285 288 286 287 282 279 277 277 279 280 279 277 277 282 290 300 309 314 321 328 333 338 342 344 345 347 348
155 155 155 156 161 165 166 168 173 179 182 188 195 215 239 268 281 288 292 288 285 283 282 280 279 282 282 281 279 277 280 286 294 302 309 316 322 328 335 339 342 345 347 349
152 154 155 156 159 162 162 165 168 170 172 181 198 229 259 279 291 299 302 298 291 285 283 282 284 284 283 282 280 279 280 284 290 295 302 309 317 323 329 335 339 342 345 348
150 151 153 155 157 163 167 168 169 171 179 188 215 256 282 298 306 310 308 310 303 295 289 287 289 288 285 284 283 281 280 283 287 292 297 303 310 318 323 329 334 339 342 345
147 149 151 153 156 160 165 169 173 180 190 206 245 274 289 303 313 316 316 315 311 307 299 293 291 291 291 289 286 283 282 283 285 289 294 298 304 311 316 322 329 335 339 342
147 151 155 160 162 164 169 174 184 203 223 246 271 285 295 308 317 322 322 320 318 313 305 299 297 296 294 293 289 285 283 282 284 287 290 294 299 304 309 315 321 328 333 337
146 151 155 159 164 169 173 183 206 234 251 267 284 297 307 314 319 324 325 322 317 315 310 304 302 301 297 294 291 288 285 282 283 285 287 289 294 298 302 307 313 319 324 330
145 147 152 158 166 179 186 202 232 258 270 278 289 305 313 317 322 322 322 319 316 313 309 306 304 304 301 297 294 290 287 284 283 283 284 285 288 292 296 301 305 309 315 321
142 146 152 160 171 185 209 247 277 286 290 297 303 309 314 320 320 320 321 319 317 315 311 306 305 304 303 301 298 294 290 287 285 283 282 283 284 286 290 293 298 301 305 310
140 143 149 163 180 215 271 294 308 314 310 307 305 308 312 316 317 317 317 316 314 314 313 310 307 305 303 301 299 297 293 290 287 285 283 282 282 283 285 287 290 294 297 302
144 151 160 179 250 288 300 308 313 315 313 312 312 310 310 313 313 313 312 311 311 310 311 310 308 306 304 301 299 298 295 292 290 288 286 284 283 282 282 283 284 286 289 293
162 176 212 252 274 289 298 306 311 311 310 310 310 310 310 310 310 308 307 306 307 307 307 307 305 304 302 300 299 298 297 295 292 290 287 286 284 282 281 280 280 280 282 285
202 220 254 271 283 288 294 302 304 305 306 308 309 310 309 308 307 305 304 303 303 304 304 303 302 301 300 298 297 296 295 294 293 290 288 286 285 283 281 279 278 277 277 278
248 256 266 276 283 288 295 297 298 301 304 306 306 305 305 305 304 305 304 303 303 303 303 303 301 299 298 296 295 294 292 291 290 289 287 285 284 282 280 278 276 275 274 274
260 267 272 278 283 288 293 292 295 298 300 302 301 301 301 302 302 302 301 301 301 302 302 302 300 299 297 296 294 293 291 290 288 287 285 284 282 281 279 278 276 273 272 272
266 271 275 279 284 288 291 293 294 296 297 299 299 299 299 299 299 299 299 299 300 300 300 299 299 297 296 294 293 292 290 289 288 286 284 282 281 279 277 276 274 272 270 269
270 274 277 280 283 286 290 291 292 294 295 297 297 298 298 298 298 299 299 299 300 300 299 299 298 297 295 293 291 290 290 288 287 286 284 281 279 277 275 274 272 271 269 267
272 275 278 280 283 286 290 291 292 293 295 296 297 298 298 298 299 299 298 299 299 299 298 298 296 295 294 293 291 289 288 287 286 285 283 281 278 276 273 271 270 269 268 266
274 276 279 281 284 287 289 290 292 294 296 297 298 298 298 298 298 298 298 298 298 298 298 296 295 295 294 293 292 290 288 287 286 284 282 280 278 275 272 270 268 267 266 265
275 278 280 282 284 286 288 289 291 293 295 297 297 297 297 298 298 298 298 298 298 298 297 296 294 294 293 293 292 290 288 287 286 284 282 280 277 274 271 269 267 265 265 264
276 278 280 282 285 287 288 290 291 293 294 295 296 296 297 297 297 298 299 299 298 298 297 296 295 295 294 293 292 290 288 286 284 283 281 279 276 273 271 268 266 264 263 262
277 279 280 282 285 287 289 291 292 293 295 296 297 297 298 298 299 299 299 299 299 298 297 296 295 295 294 293 293 291 289 286 284 282 280 277 275 273 270 267 265 263 261 260
278 280 281 282 284 287 289 290 292 293 294 295 296 296 297 298 299 299 299 299 298 298 297 296 296 295 294 293 293 291 289 287 285 283 281 278 275 272 268 265 263 261 259 257
Height
5814 5821 5825 5830 5834 5838 5841 5843 5846 5848 5850 5852 5854 5855 5856 5856 5857 5857 5857 5856 5856 5855 5855 5854 5853 5853 5853 5852 5852 5852 5851 5850 5849 5848 5846 5844 5842 5840 5837 5834 5830 5827 5823 5819
5817 5821 5826 5830 5834 5837 5840 5843 5845 5848 5849 5852 5853 5854 5855 5855 5856 5855 5855 5855 5854 5853 5853 5852 5852 5851 5851 5850 5850 5850 5849 5848 5847 5846 5844 5842 5840 5838 5835 5832 5829 5825 5822 5818
5818 5824 5827 5831 5834 5837 5840 5843 5845 5847 5849 5851 5853 5854 5854 5854 5854 5854 5854 5853 5852 5852 5851 5850 5850 5849 5849 5848 5848 5847 5847 5846 5845 5844 5842 5840 5838 5836 5834 5831 5828 5824 5821 5816
5819 5824 5828 5831 5835 5838 5840 5842 5845 5847 5849 5850 5853 5853 5853 5853 5853 5853 5852 5851 5851 5850 5849 5848 5848 5847 5846 5846 5845 5845 5844 5844 5843 5841 5840 5839 5837 5835 5832 5830 5826 5823 5820 5816
5822 5825 5829 5832 5835 5838 5840 5843 5845 5847 5848 5850 5851 5853 5853 5853 5852 5852 5851 5850 5849 5848 5847 5846 5846 5845 5844 5844 5843 5842 5842 5841 5841 5839 5838 5837 5835 5833 5831 5828 5825 5822 5819 5815
5824 5827 5831 5834 5836 5839 5841 5843 5845 5847 5849 5850 5851 5852 5852 5852 5851 5851 5849 5848 5847 5846 5845 5844 5844 5843 5842 5841 5841 5840 5840 5839 5839 5838 5836 5835 5834 5832 5830 5827 5824 5821 5818 5814
5827 5830 5833 5835 5837 5840 5842 5844 5846 5847 5848 5850 5850 5851 5852 5851 5850 5849 5848 5847 5845 5844 5843 5842 5842 5841 5840 5839 5839 5838 5837 5837 5836 5835 5834 5833 5832 5830 5828 5826 5823 5820 5817 5814
5829 5832 5835 5836 5839 5840 5842 5845 5847 5848 5848 5849 5850 5850 5851 5849 5848 5847 5846 5845 5844 5843 5841 5840 5839 5839 5838 5837 5836 5836 5835 5835 5834 5833 5832 5831 5829 5828 5826 5824 5822 5819 5816 5813
5832 5834 5836 5838 5839 5841 5843 5844 5846 5847 5847 5848 5849 5849 5849 5848 5847 5846 5845 5844 5842 5841 5839 5838 5837 5836 5835 5834 5834 5833 5832 5832 5831 5830 5829 5828 5827 5826 5824 5822 5820 5818 5815 5812
5834 5836 5837 5839 5840 5842 5843 5844 5845 5846 5846 5847 5847 5847 5847 5846 5845 5844 5843 5841 5840 5839 5837 5836 5835 5833 5833 5832 5831 5830 5829 5829 5828 5827 5827 5826 5824 5823 5822 5820 5818 5816 5814 5811
5835 5837 5839 5840 5841 5842 5843 5844 5844 5845 5845 5846 5846 5848 5845 5844 5843 5842 5841 5840 5838 5837 5835 5833 5832 5831 5830 5829 5828 5827 5826 5825 5825 5824 5823 5822 5821 5820 5819 5817 5816 5814 5812 5810
5836 5837 5838 5840 5841 5841 5842 5843 5843 5844 5844 5844 5844 5847 5843 5842 5841 5840 5839 5837 5836 5834 5832 5831 5829 5828 5827 5826 5825 5824 5823 5822 5821 5820 5819 5818 5817 5816 5815 5814 5813 5811 5810 5808
5836 5838 5838 5839 5842 5841 5841 5841 5841 5842 5842 5842 5842 5844 5840 5840 5838 5837 5836 5834 5833 5831 5830 5828 5827 5825 5824 5822 5821 5820 5819 5818 5817 5816 5815 5814 5813 5812 5811 5810 5809 5808 5807 5805
5836 5837 5839 5840 5839 5839 5839 5840 5840 5840 5840 5840 5840 5840 5838 5837 5835 5834 5833 5831 5830 5828 5827 5825 5823 5822 5821 5819 5817 5816 5815 5814 5813 5812 5811 5810 5809 5808 5807 5806 5805 5804 5803 5802
5836 5837 5837 5837 5837 5838 5838 5838 5838 5838 5838 5837 5837 5836 5835 5834 5833 5831 5829 5828 5826 5825 5823 5821 5820 5818 5817 5815 5814 5812 5810 5809 5808 5807 5806 5805 5804 5803 5802 5801 5800 5799 5799 5798
5835 5835 5836 5836 5836 5836 5836 5836 5835 5835 5835 5834 5833 5833 5832 5830 5829 5827 5826 5824 5823 5821 5819 5818 5816 5814 5812 5811 5809 5807 5806 5804 5803 5802 5800 5799 5798 5797 5796 5795 5794 5794 5793 5792
5833 5834 5834 5834 5834 5834 5834 5834 5833 5832 5832 5831 5830 5830 5828 5826 5825 5823 5821 5820 5818 5816 5814 5813 5811 5809 5807 5805 5804 5802 5800 5798 5797 5795 5794 5793 5792 5791 5790 5789 5788 5788 5787 5786
5831 5831 5832 5832 5832 5831 5834 5830 5830 5829 5828 5827 5826 5825 5823 5822 5820 5818 5816 5814 5813 5811 5809 5807 5805 5803 5801 5799 5797 5796 5794 5792 5790 5789 5787 5786 5784 5784 5783 5782 5781 5780 5780 5779
5828 5829 5829 5829 5828 5828 5828 5827 5826 5825 5824 5823 5821 5820 5818 5816 5815 5813 5811 5808 5806 5804 5802 5800 5798 5796 5794 5791 5790 5788 5786 5784 5782 5781 5779 5777 5776 5775 5774 5774 5773 5772 5772 5771
5825 5825 5825 5824 5824 5824 5825 5823 5820 5820 5819 5817 5815 5814 5812 5810 5809 5807 5804 5801 5799 5796 5794 5791 5789 5786 5784 5782 5780 5778 5777 5775 5773 5771 5770 5768 5766 5766 5765 5764 5763 5763 5762 5762
5820 5820 5820 5819 5818 5818 5818 5816 5815 5815 5814 5811 5809 5807 5805 5803 5801 5799 5796 5794 5791 5788 5785 5782 5779 5776 5774 5771 5769 5768 5766 5764 5762 5760 5759 5757 5755 5754 5753 5753 5752 5752 5752 5752
5814 5814 5814 5813 5812 5814 5811 5810 5809 5808 5805 5803 5801 5799 5797 5795 5792 5790 5787 5784 5781 5778 5775 5772 5768 5766 5762 5759 5757 5755 5753 5751 5749 5748 5746 5744 5742 5741 5741 5740 5740 5740 5740 5741
5808 5808 5807 5807 5808 5805 5804 5802 5801 5799 5797 5795 5793 5791 5788 5785 5783 5780 5777 5773 5770 5767 5763 5760 5756 5753 5750 5747 5743 5741 5738 5736 5734 5732 5731 5729 5728 5727 5726 5726 5727 5727 5727 5728
5800 5799 5799 5798 5797 5796 5795 5793 5792 5790 5788 5786 5783 5781 5778 5775 5772 5769 5765 5762 5758 5754 5750 5746 5743 5740 5736 5732 5728 5725 5722 5719 5717 5716 5714 5712 5712 5711 5711 5711 5712 5712 5714 5715
5792 5791 5790 5789 5788 5787 5786 5784 5782 5780 5777 5775 5772 5769 5766 5763 5760 5756 5753 5749 5744 5740 5736 5732 5728 5724 5720 5716 5712 5708 5704 5702 5699 5698 5696 5695 5694 5693 5693 5694 5695 5696 5698 5699
5782 5781 5780 5780 5779 5777 5776 5773 5771 5769 5766 5763 5761 5757 5754 5750 5747 5743 5738 5734 5729 5725 5720 5716 5711 5707 5702 5698 5694 5689 5685 5682 5679 5678 5676 5675 5674 5673 5673 5674 5676 5678 5681 5683